Regional Weather Roundup
Issued by NWS Mt. Holly, NJ

Home | Current Version | Previous Version | Text Only | Print | Product List | Glossary On
Versions: 1 2 3 4 5 6 7 8 9 10 11 12 13 14 15 16 17 18 19 20 21 22 23 24 25 26 27
000
ASUS41 KPHI 251112
RWRPHI

REGIONAL WEATHER ROUNDUP
NATIONAL WEATHER SERVICE MOUNT HOLLY NJ
600 AM EST SAT FEB 25 2017

NOTE:  "FAIR" INDICATES FEW OR NO CLOUDS BELOW 12,000 FEET WITH NO
SIGNIFICANT WEATHER AND/OR OBSTRUCTIONS TO VISIBILITY.

 * = STATION DOES NOT REPORT PRECIPITATION (E.G. RAIN, SNOW, ETC.)
        OR FOG.

NJZ015>026-251200-
SOUTHERN NEW JERSEY

CITY           SKY/WX    TMP DP  RH WIND       PRES   REMARKS
POMONA         MOCLDY    51  49  92 S8        29.78F FOG
WILDWOOD*      CLOUDY    48  48 100 SE6       29.78F
MILLVILLE      CLOUDY    56  56 100 VRB3      29.77F
WRIGHTSTOWN    MOCLDY    55  54  96 S6        29.75F
MOUNT HOLLY    CLOUDY    55  54  96 CALM      29.76F
TRENTON        MOCLDY    56  55  97 S8        29.75F

$$
NJZ001>014-251200-
NORTHERN NEW JERSEY

CITY           SKY/WX    TMP DP  RH WIND       PRES   REMARKS
SUSSEX         MOCLDY    60  55  83 S7        29.74F
ANDOVER*         N/A     59  54  83 VRB5      29.74F
MORRISTOWN     CLOUDY    57  55  94 CALM      29.77F
NEWARK         FOG       50  49  96 E3        29.78F VSB 1/4
TETERBORO      CLEAR     51  49  92 SW5       29.77F
CALDWELL       CLOUDY    59  55  87 CALM      29.77F
SOMERVILLE     CLOUDY    56  54  93 CALM      29.75F
ALLAIRE*       PTCLDY    52  52 100 S3        29.80S
TOMS RIVER*    PTCLDY    52  52 100 S5        29.79F

$$
PAZ043-044-047-054-055-060>062-066>071-251200-
EASTERN PENNSYLVANIA

CITY           SKY/WX    TMP DP  RH WIND       PRES   REMARKS
PHILADELPHIA   MOCLDY    57  55  93 S3        29.77S
NORTH PHILA    MOCLDY    57  55  93 CALM      29.77F
BLUE BELL*     MOCLDY    55  55 100 S3        29.75F
DOYLESTOWN     CLOUDY    59  57  93 S5        29.75S
QUAKERTOWN*    CLOUDY    59  55  88 SW7       29.75F
PERKASIE*      CLOUDY    57  57 100 S6        29.76F
POTTSTOWN      CLOUDY    57  54  89 S3        29.75F
LANCASTER      CLOUDY    61  58  90 S12G21    29.70F
COATESVILLE    CLOUDY    55  55 100 SE5       29.75F
READING        PTCLDY    60  58  92 S12       29.70F
ALLENTOWN      CLOUDY    61  54  77 S8        29.72F
MOUNT POCONO   CLOUDY    54  54 100 S14       29.73F FOG
HAZLETON       CLOUDY    57  55  94 S10G18    29.72F
LEHIGHTON      CLOUDY    61  55  82 S5        29.72F
WILKES BARRE   CLOUDY    62  57  83 S10G16    29.67F

$$
DEZALL-MDZ008-012-015-019-020-251200-
DELAWARE AND EASTERN MARYLAND

CITY           SKY/WX    TMP DP  RH WIND       PRES   REMARKS
WILMINGTON     FOG       52  52 100 S5        29.75F VSB 1/4
DOVER          MOCLDY    55  55 100 SE7       29.75F
GEORGETOWN     CLOUDY    54  53  97 S6        29.77F
EASTON         CLOUDY    60  56  87 S10       29.78F
ABERDEEN       MOCLDY    51  50  99 CALM      29.74F FOG
PATUXENT       PTCLDY    52  52 100 SE5       29.75F
OCEAN CITY     CLOUDY    48  47  96 CALM      29.79S FOG
WALLOPS ISLAND PTCLDY    50  50 100 S3        29.78F FOG
CAMBRIDGE        N/A     55  55 100 S6G14     29.76F
SALISBURY      CLOUDY    48  48 100 CALM      29.77F FOG

$$
PAZ001-021-NYZ056-072-MDZ011-DCZ001-251200-
OTHER NEARBY LOCATIONS

CITY           SKY/WX    TMP DP  RH WIND       PRES   REMARKS
HARRISBURG     MOCLDY    60  57  89 S9G18     29.66F
STATE COLLEGE  CLEAR     59  52  77 SW7       29.60F
WILLIAMSPORT   MOCLDY    63  56  78 SE12G18   29.61F
BINGHAMTON     PTCLDY    58  53  84 S10G21    29.61F
NEW YORK CITY  PTCLDY    53  51  93 S5        29.80F
BALTIMORE      MOCLDY    51  51 100 SE6       29.71F FOG
WASHINGTON DC  MOCLDY    58  56  93 S10       29.72F

$$




USA.gov is the U.S. government's official web portal to all federal, state and local government web resources and services.